Year,Month,Day,Hour,Minute,Value (Times are PST for insolation in W/m^2)
2021,12,21,00,00,0.00
2021,12,21,00,01,0.00
2021,12,21,00,02,0.00
2021,12,21,00,03,0.00
2021,12,21,00,04,0.00
2021,12,21,00,05,0.00
2021,12,21,00,06,0.00
2021,12,21,00,07,0.00
2021,12,21,00,08,0.00
2021,12,21,00,09,0.00
2021,12,21,00,10,0.00
2021,12,21,00,11,0.00
2021,12,21,00,12,0.00
2021,12,21,00,13,0.00
2021,12,21,00,14,0.00
2021,12,21,00,15,0.00
2021,12,21,00,16,0.00
2021,12,21,00,17,0.00
2021,12,21,00,18,0.00
2021,12,21,00,19,0.00
2021,12,21,00,20,0.00
2021,12,21,00,21,0.00
2021,12,21,00,22,0.00
2021,12,21,00,23,0.00
2021,12,21,00,24,0.00
2021,12,21,00,25,0.00
2021,12,21,00,26,0.00
2021,12,21,00,27,0.00
2021,12,21,00,28,0.00
2021,12,21,00,29,0.00
2021,12,21,00,30,0.00
2021,12,21,00,31,0.00
2021,12,21,00,32,0.00
2021,12,21,00,33,0.00
2021,12,21,00,34,0.00
2021,12,21,00,35,0.00
2021,12,21,00,36,0.00
2021,12,21,00,37,0.00
2021,12,21,00,38,0.00
2021,12,21,00,39,0.00
2021,12,21,00,40,0.00
2021,12,21,00,41,0.00
2021,12,21,00,42,0.00
2021,12,21,00,43,0.00
2021,12,21,00,44,0.00
2021,12,21,00,45,0.00
2021,12,21,00,46,0.00
2021,12,21,00,47,0.00
2021,12,21,00,48,0.00
2021,12,21,00,49,0.00
2021,12,21,00,50,0.00
2021,12,21,00,51,0.00
2021,12,21,00,52,0.00
2021,12,21,00,53,0.00
2021,12,21,00,54,0.00
2021,12,21,00,55,0.00
2021,12,21,00,56,0.00
2021,12,21,00,57,0.00
2021,12,21,00,58,0.00
2021,12,21,00,59,0.00
2021,12,21,01,00,0.00
2021,12,21,01,01,0.00
2021,12,21,01,02,0.00
2021,12,21,01,03,0.00
2021,12,21,01,04,0.00
2021,12,21,01,05,0.00
2021,12,21,01,06,0.00
2021,12,21,01,07,0.00
2021,12,21,01,08,0.00
2021,12,21,01,09,0.00
2021,12,21,01,10,0.00
2021,12,21,01,11,0.00
2021,12,21,01,12,0.00
2021,12,21,01,13,0.00
2021,12,21,01,14,0.00
2021,12,21,01,15,0.00
2021,12,21,01,16,0.00
2021,12,21,01,17,0.00
2021,12,21,01,18,0.00
2021,12,21,01,19,0.00
2021,12,21,01,20,0.00
2021,12,21,01,21,0.00
2021,12,21,01,22,0.00
2021,12,21,01,23,0.00
2021,12,21,01,24,0.00
2021,12,21,01,25,0.00
2021,12,21,01,26,0.00
2021,12,21,01,27,0.00
2021,12,21,01,28,0.00
2021,12,21,01,29,0.00
2021,12,21,01,30,0.00
2021,12,21,01,31,0.00
2021,12,21,01,32,0.00
2021,12,21,01,33,0.00
2021,12,21,01,34,0.00
2021,12,21,01,35,0.00
2021,12,21,01,36,0.00
2021,12,21,01,37,0.00
2021,12,21,01,38,0.00
2021,12,21,01,39,0.00
2021,12,21,01,40,0.00
2021,12,21,01,41,0.00
2021,12,21,01,42,0.00
2021,12,21,01,43,0.00
2021,12,21,01,44,0.00
2021,12,21,01,45,0.00
2021,12,21,01,46,0.00
2021,12,21,01,47,0.00
2021,12,21,01,48,0.00
2021,12,21,01,49,0.00
2021,12,21,01,50,0.00
2021,12,21,01,51,0.00
2021,12,21,01,52,0.00
2021,12,21,01,53,0.00
2021,12,21,01,54,0.00
2021,12,21,01,55,0.00
2021,12,21,01,56,0.00
2021,12,21,01,57,0.00
2021,12,21,01,58,0.00
2021,12,21,01,59,0.00
2021,12,21,02,00,0.00
2021,12,21,02,01,0.00
2021,12,21,02,02,0.00
2021,12,21,02,03,0.00
2021,12,21,02,04,0.00
2021,12,21,02,05,0.00
2021,12,21,02,06,0.00
2021,12,21,02,07,0.00
2021,12,21,02,08,0.00
2021,12,21,02,09,0.00
2021,12,21,02,10,0.00
2021,12,21,02,11,0.00
2021,12,21,02,12,0.00
2021,12,21,02,13,0.00
2021,12,21,02,14,0.00
2021,12,21,02,15,0.00
2021,12,21,02,16,0.00
2021,12,21,02,17,0.00
2021,12,21,02,18,0.00
2021,12,21,02,19,0.00
2021,12,21,02,20,0.00
2021,12,21,02,21,0.00
2021,12,21,02,22,0.00
2021,12,21,02,23,0.00
2021,12,21,02,24,0.00
2021,12,21,02,25,0.00
2021,12,21,02,26,0.00
2021,12,21,02,27,0.00
2021,12,21,02,28,0.00
2021,12,21,02,29,0.00
2021,12,21,02,30,0.00
2021,12,21,02,31,0.00
2021,12,21,02,32,0.00
2021,12,21,02,33,0.00
2021,12,21,02,34,0.00
2021,12,21,02,35,0.00
2021,12,21,02,36,0.00
2021,12,21,02,37,0.00
2021,12,21,02,38,0.00
2021,12,21,02,39,0.00
2021,12,21,02,40,0.00
2021,12,21,02,41,0.00
2021,12,21,02,42,0.00
2021,12,21,02,43,0.00
2021,12,21,02,44,0.00
2021,12,21,02,45,0.00
2021,12,21,02,46,0.00
2021,12,21,02,47,0.00
2021,12,21,02,48,0.00
2021,12,21,02,49,0.00
2021,12,21,02,50,0.00
2021,12,21,02,51,0.00
2021,12,21,02,52,0.00
2021,12,21,02,53,0.00
2021,12,21,02,54,0.00
2021,12,21,02,55,0.00
2021,12,21,02,56,0.00
2021,12,21,02,57,0.00
2021,12,21,02,58,0.00
2021,12,21,02,59,0.00
2021,12,21,03,00,0.00
2021,12,21,03,01,0.00
2021,12,21,03,02,0.00
2021,12,21,03,03,0.00
2021,12,21,03,04,0.00
2021,12,21,03,05,0.00
2021,12,21,03,06,0.00
2021,12,21,03,07,0.00
2021,12,21,03,08,0.00
2021,12,21,03,09,0.00
2021,12,21,03,10,0.00
2021,12,21,03,11,0.00
2021,12,21,03,12,0.00
2021,12,21,03,13,0.00
2021,12,21,03,14,0.00
2021,12,21,03,15,0.00
2021,12,21,03,16,0.00
2021,12,21,03,17,0.00
2021,12,21,03,18,0.00
2021,12,21,03,19,0.00
2021,12,21,03,20,0.00
2021,12,21,03,21,0.00
2021,12,21,03,22,0.00
2021,12,21,03,23,0.00
2021,12,21,03,24,0.00
2021,12,21,03,25,0.00
2021,12,21,03,26,0.00
2021,12,21,03,27,0.00
2021,12,21,03,28,0.00
2021,12,21,03,29,0.00
2021,12,21,03,30,0.00
2021,12,21,03,31,0.00
2021,12,21,03,32,0.00
2021,12,21,03,33,0.00
2021,12,21,03,34,0.00
2021,12,21,03,35,0.00
2021,12,21,03,36,0.00
2021,12,21,03,37,0.00
2021,12,21,03,38,0.00
2021,12,21,03,39,0.00
2021,12,21,03,40,0.00
2021,12,21,03,41,0.00
2021,12,21,03,42,0.00
2021,12,21,03,43,0.00
2021,12,21,03,44,0.00
2021,12,21,03,45,0.00
2021,12,21,03,46,0.00
2021,12,21,03,47,0.00
2021,12,21,03,48,0.00
2021,12,21,03,49,0.00
2021,12,21,03,50,0.00
2021,12,21,03,51,0.00
2021,12,21,03,52,0.00
2021,12,21,03,53,0.00
2021,12,21,03,54,0.00
2021,12,21,03,55,0.00
2021,12,21,03,56,0.00
2021,12,21,03,57,0.00
2021,12,21,03,58,0.00
2021,12,21,03,59,0.00
2021,12,21,04,00,0.00
2021,12,21,04,01,0.00
2021,12,21,04,02,0.00
2021,12,21,04,03,0.00
2021,12,21,04,04,0.00
2021,12,21,04,05,0.00
2021,12,21,04,06,0.00
2021,12,21,04,07,0.00
2021,12,21,04,08,0.00
2021,12,21,04,09,0.00
2021,12,21,04,10,0.00
2021,12,21,04,11,0.00
2021,12,21,04,12,0.00
2021,12,21,04,13,0.00
2021,12,21,04,14,0.00
2021,12,21,04,15,0.00
2021,12,21,04,16,0.00
2021,12,21,04,17,0.00
2021,12,21,04,18,0.00
2021,12,21,04,19,0.00
2021,12,21,04,20,0.00
2021,12,21,04,21,0.00
2021,12,21,04,22,0.00
2021,12,21,04,23,0.00
2021,12,21,04,24,0.00
2021,12,21,04,25,0.00
2021,12,21,04,26,0.00
2021,12,21,04,27,0.00
2021,12,21,04,28,0.00
2021,12,21,04,29,0.00
2021,12,21,04,30,0.00
2021,12,21,04,31,0.00
2021,12,21,04,32,0.00
2021,12,21,04,33,0.00
2021,12,21,04,34,0.00
2021,12,21,04,35,0.00
2021,12,21,04,36,0.00
2021,12,21,04,37,0.00
2021,12,21,04,38,0.00
2021,12,21,04,39,0.00
2021,12,21,04,40,0.00
2021,12,21,04,41,0.00
2021,12,21,04,42,0.00
2021,12,21,04,43,0.00
2021,12,21,04,44,0.00
2021,12,21,04,45,0.00
2021,12,21,04,46,0.00
2021,12,21,04,47,0.00
2021,12,21,04,48,0.00
2021,12,21,04,49,0.00
2021,12,21,04,50,0.00
2021,12,21,04,51,0.00
2021,12,21,04,52,0.00
2021,12,21,04,53,0.00
2021,12,21,04,54,0.00
2021,12,21,04,55,0.00
2021,12,21,04,56,0.00
2021,12,21,04,57,0.00
2021,12,21,04,58,0.00
2021,12,21,04,59,0.00
2021,12,21,05,00,0.00
2021,12,21,05,01,0.00
2021,12,21,05,02,0.00
2021,12,21,05,03,0.00
2021,12,21,05,04,0.00
2021,12,21,05,05,0.00
2021,12,21,05,06,0.00
2021,12,21,05,07,0.00
2021,12,21,05,08,0.00
2021,12,21,05,09,0.00
2021,12,21,05,10,0.00
2021,12,21,05,11,0.00
2021,12,21,05,12,0.00
2021,12,21,05,13,0.00
2021,12,21,05,14,0.00
2021,12,21,05,15,0.00
2021,12,21,05,16,0.00
2021,12,21,05,17,0.00
2021,12,21,05,18,0.00
2021,12,21,05,19,0.00
2021,12,21,05,20,0.00
2021,12,21,05,21,0.00
2021,12,21,05,22,0.00
2021,12,21,05,23,0.00
2021,12,21,05,24,0.00
2021,12,21,05,25,0.00
2021,12,21,05,26,0.00
2021,12,21,05,27,0.00
2021,12,21,05,28,0.00
2021,12,21,05,29,0.00
2021,12,21,05,30,0.00
2021,12,21,05,31,0.00
2021,12,21,05,32,0.00
2021,12,21,05,33,0.00
2021,12,21,05,34,0.00
2021,12,21,05,35,0.00
2021,12,21,05,36,0.00
2021,12,21,05,37,0.00
2021,12,21,05,38,0.00
2021,12,21,05,39,0.00
2021,12,21,05,40,0.00
2021,12,21,05,41,0.00
2021,12,21,05,42,0.00
2021,12,21,05,43,0.00
2021,12,21,05,44,0.00
2021,12,21,05,45,0.00
2021,12,21,05,46,0.00
2021,12,21,05,47,0.00
2021,12,21,05,48,0.00
2021,12,21,05,49,0.00
2021,12,21,05,50,0.00
2021,12,21,05,51,0.00
2021,12,21,05,52,0.00
2021,12,21,05,53,0.00
2021,12,21,05,54,0.00
2021,12,21,05,55,0.00
2021,12,21,05,56,0.00
2021,12,21,05,57,0.00
2021,12,21,05,58,0.00
2021,12,21,05,59,0.00
2021,12,21,06,00,0.00
2021,12,21,06,01,0.00
2021,12,21,06,02,0.00
2021,12,21,06,03,0.00
2021,12,21,06,04,0.00
2021,12,21,06,05,0.00
2021,12,21,06,06,0.00
2021,12,21,06,07,0.00
2021,12,21,06,08,0.00
2021,12,21,06,09,0.00
2021,12,21,06,10,0.00
2021,12,21,06,11,0.00
2021,12,21,06,12,0.00
2021,12,21,06,13,0.00
2021,12,21,06,14,0.00
2021,12,21,06,15,0.00
2021,12,21,06,16,0.00
2021,12,21,06,17,0.00
2021,12,21,06,18,0.00
2021,12,21,06,19,0.00
2021,12,21,06,20,0.00
2021,12,21,06,21,0.00
2021,12,21,06,22,0.00
2021,12,21,06,23,0.00
2021,12,21,06,24,0.00
2021,12,21,06,25,0.00
2021,12,21,06,26,0.00
2021,12,21,06,27,0.00
2021,12,21,06,28,0.00
2021,12,21,06,29,0.00
2021,12,21,06,30,0.00
2021,12,21,06,31,0.00
2021,12,21,06,32,0.00
2021,12,21,06,33,0.00
2021,12,21,06,34,0.00
2021,12,21,06,35,0.00
2021,12,21,06,36,0.00
2021,12,21,06,37,0.00
2021,12,21,06,38,0.00
2021,12,21,06,39,0.00
2021,12,21,06,40,0.00
2021,12,21,06,41,0.00
2021,12,21,06,42,0.00
2021,12,21,06,43,0.00
2021,12,21,06,44,0.00
2021,12,21,06,45,0.00
2021,12,21,06,46,0.00
2021,12,21,06,47,0.00
2021,12,21,06,48,0.00
2021,12,21,06,49,0.00
2021,12,21,06,50,0.00
2021,12,21,06,51,0.00
2021,12,21,06,52,0.00
2021,12,21,06,53,0.00
2021,12,21,06,54,0.00
2021,12,21,06,55,0.00
2021,12,21,06,56,0.00
2021,12,21,06,57,0.00
2021,12,21,06,58,0.00
2021,12,21,06,59,0.00
2021,12,21,07,00,0.00
2021,12,21,07,01,0.00
2021,12,21,07,02,0.00
2021,12,21,07,03,0.00
2021,12,21,07,04,0.00
2021,12,21,07,05,0.00
2021,12,21,07,06,0.00
2021,12,21,07,07,0.00
2021,12,21,07,08,0.00
2021,12,21,07,09,0.00
2021,12,21,07,10,0.00
2021,12,21,07,11,0.00
2021,12,21,07,12,0.00
2021,12,21,07,13,0.00
2021,12,21,07,14,0.00
2021,12,21,07,15,0.00
2021,12,21,07,16,0.00
2021,12,21,07,17,0.00
2021,12,21,07,18,0.00
2021,12,21,07,19,0.00
2021,12,21,07,20,0.00
2021,12,21,07,21,0.00
2021,12,21,07,22,0.00
2021,12,21,07,23,0.00
2021,12,21,07,24,0.00
2021,12,21,07,25,0.00
2021,12,21,07,26,0.00
2021,12,21,07,27,0.00
2021,12,21,07,28,0.00
2021,12,21,07,29,0.00
2021,12,21,07,30,0.00
2021,12,21,07,31,0.00
2021,12,21,07,32,0.00
2021,12,21,07,33,0.00
2021,12,21,07,34,0.00
2021,12,21,07,35,0.00
2021,12,21,07,36,0.00
2021,12,21,07,37,0.00
2021,12,21,07,38,0.00
2021,12,21,07,39,0.00
2021,12,21,07,40,0.00
2021,12,21,07,41,0.00
2021,12,21,07,42,0.00
2021,12,21,07,43,0.00
2021,12,21,07,44,0.00
2021,12,21,07,45,0.00
2021,12,21,07,46,0.00
2021,12,21,07,47,0.00
2021,12,21,07,48,0.00
2021,12,21,07,49,0.00
2021,12,21,07,50,0.00
2021,12,21,07,51,0.00
2021,12,21,07,52,0.00
2021,12,21,07,53,0.00
2021,12,21,07,54,0.00
2021,12,21,07,55,0.00
2021,12,21,07,56,0.00
2021,12,21,07,57,0.00
2021,12,21,07,58,0.00
2021,12,21,07,59,0.00
2021,12,21,08,00,0.00
2021,12,21,08,01,0.00
2021,12,21,08,02,0.00
2021,12,21,08,03,0.00
2021,12,21,08,04,0.00
2021,12,21,08,05,0.00
2021,12,21,08,06,0.00
2021,12,21,08,07,0.00
2021,12,21,08,08,0.00
2021,12,21,08,09,0.00
2021,12,21,08,10,0.00
2021,12,21,08,11,0.00
2021,12,21,08,12,0.00
2021,12,21,08,13,0.00
2021,12,21,08,14,0.00
2021,12,21,08,15,0.00
2021,12,21,08,16,0.00
2021,12,21,08,17,0.00
2021,12,21,08,18,0.00
2021,12,21,08,19,0.00
2021,12,21,08,20,0.00
2021,12,21,08,21,0.00
2021,12,21,08,22,0.00
2021,12,21,08,23,0.00
2021,12,21,08,24,0.00
2021,12,21,08,25,0.00
2021,12,21,08,26,0.00
2021,12,21,08,27,1.40
2021,12,21,08,28,5.00
2021,12,21,08,29,5.00
2021,12,21,08,30,5.00
2021,12,21,08,31,5.00
2021,12,21,08,32,5.00
2021,12,21,08,33,5.00
2021,12,21,08,34,5.00
2021,12,21,08,35,5.80
2021,12,21,08,36,7.00
2021,12,21,08,37,8.40
2021,12,21,08,38,10.60
2021,12,21,08,39,11.00
2021,12,21,08,40,11.20
2021,12,21,08,41,12.00
2021,12,21,08,42,12.00
2021,12,21,08,43,12.00
2021,12,21,08,44,12.00
2021,12,21,08,45,12.00
2021,12,21,08,46,12.00
2021,12,21,08,47,12.00
2021,12,21,08,48,12.60
2021,12,21,08,49,14.00
2021,12,21,08,50,14.00
2021,12,21,08,51,14.00
2021,12,21,08,52,14.00
2021,12,21,08,53,15.80
2021,12,21,08,54,16.40
2021,12,21,08,55,18.30
2021,12,21,08,56,19.00
2021,12,21,08,57,20.10
2021,12,21,08,58,21.00
2021,12,21,08,59,19.40
2021,12,21,09,00,18.00
2021,12,21,09,01,16.00
2021,12,21,09,02,16.00
2021,12,21,09,03,16.00
2021,12,21,09,04,16.00
2021,12,21,09,05,14.60
2021,12,21,09,06,14.00
2021,12,21,09,07,12.20
2021,12,21,09,08,11.80
2021,12,21,09,09,11.00
2021,12,21,09,10,11.40
2021,12,21,09,11,12.00
2021,12,21,09,12,12.00
2021,12,21,09,13,12.00
2021,12,21,09,14,12.00
2021,12,21,09,15,12.00
2021,12,21,09,16,12.60
2021,12,21,09,17,14.00
2021,12,21,09,18,14.00
2021,12,21,09,19,14.00
2021,12,21,09,20,15.60
2021,12,21,09,21,16.00
2021,12,21,09,22,16.00
2021,12,21,09,23,16.00
2021,12,21,09,24,16.80
2021,12,21,09,25,18.00
2021,12,21,09,26,18.00
2021,12,21,09,27,18.00
2021,12,21,09,28,18.00
2021,12,21,09,29,19.30
2021,12,21,09,30,21.00
2021,12,21,09,31,21.00
2021,12,21,09,32,22.10
2021,12,21,09,33,23.00
2021,12,21,09,34,23.00
2021,12,21,09,35,23.00
2021,12,21,09,36,23.00
2021,12,21,09,37,23.00
2021,12,21,09,38,23.00
2021,12,21,09,39,23.00
2021,12,21,09,40,21.70
2021,12,21,09,41,21.00
2021,12,21,09,42,20.90
2021,12,21,09,43,19.00
2021,12,21,09,44,19.00
2021,12,21,09,45,19.90
2021,12,21,09,46,21.00
2021,12,21,09,47,19.70
2021,12,21,09,48,19.00
2021,12,21,09,49,19.00
2021,12,21,09,50,19.40
2021,12,21,09,51,21.00
2021,12,21,09,52,21.00
2021,12,21,09,53,22.10
2021,12,21,09,54,23.00
2021,12,21,09,55,23.00
2021,12,21,09,56,24.80
2021,12,21,09,57,25.00
2021,12,21,09,58,25.00
2021,12,21,09,59,25.00
2021,12,21,10,00,25.50
2021,12,21,10,01,26.00
2021,12,21,10,02,26.00
2021,12,21,10,03,27.90
2021,12,21,10,04,30.00
2021,12,21,10,05,30.60
2021,12,21,10,06,32.40
2021,12,21,10,07,33.00
2021,12,21,10,08,33.00
2021,12,21,10,09,33.00
2021,12,21,10,10,33.00
2021,12,21,10,11,33.30
2021,12,21,10,12,35.00
2021,12,21,10,13,35.90
2021,12,21,10,14,38.60
2021,12,21,10,15,42.70
2021,12,21,10,16,46.40
2021,12,21,10,17,50.80
2021,12,21,10,18,53.10
2021,12,21,10,19,54.60
2021,12,21,10,20,56.80
2021,12,21,10,21,59.10
2021,12,21,10,22,61.30
2021,12,21,10,23,62.00
2021,12,21,10,24,63.00
2021,12,21,10,25,65.30
2021,12,21,10,26,66.40
2021,12,21,10,27,63.00
2021,12,21,10,28,57.90
2021,12,21,10,29,54.00
2021,12,21,10,30,51.40
2021,12,21,10,31,47.30
2021,12,21,10,32,43.60
2021,12,21,10,33,41.40
2021,12,21,10,34,39.60
2021,12,21,10,35,36.90
2021,12,21,10,36,33.70
2021,12,21,10,37,30.60
2021,12,21,10,38,29.90
2021,12,21,10,39,28.00
2021,12,21,10,40,28.00
2021,12,21,10,41,27.20
2021,12,21,10,42,26.00
2021,12,21,10,43,25.40
2021,12,21,10,44,25.00
2021,12,21,10,45,23.10
2021,12,21,10,46,23.00
2021,12,21,10,47,23.00
2021,12,21,10,48,23.00
2021,12,21,10,49,23.00
2021,12,21,10,50,24.30
2021,12,21,10,51,25.00
2021,12,21,10,52,26.10
2021,12,21,10,53,30.30
2021,12,21,10,54,32.30
2021,12,21,10,55,34.70
2021,12,21,10,56,39.60
2021,12,21,10,57,44.60
2021,12,21,10,58,48.40
2021,12,21,10,59,53.80
2021,12,21,11,00,58.40
2021,12,21,11,01,60.90
2021,12,21,11,02,63.80
2021,12,21,11,03,65.00
2021,12,21,11,04,65.00
2021,12,21,11,05,63.40
2021,12,21,11,06,62.00
2021,12,21,11,07,59.70
2021,12,21,11,08,58.00
2021,12,21,11,09,58.90
2021,12,21,11,10,60.00
2021,12,21,11,11,61.30
2021,12,21,11,12,62.80
2021,12,21,11,13,64.80
2021,12,21,11,14,65.00
2021,12,21,11,15,65.50
2021,12,21,11,16,67.00
2021,12,21,11,17,68.10
2021,12,21,11,18,69.70
2021,12,21,11,19,71.60
2021,12,21,11,20,72.10
2021,12,21,11,21,74.00
2021,12,21,11,22,74.00
2021,12,21,11,23,73.20
2021,12,21,11,24,70.90
2021,12,21,11,25,69.30
2021,12,21,11,26,67.40
2021,12,21,11,27,65.00
2021,12,21,11,28,62.00
2021,12,21,11,29,61.50
2021,12,21,11,30,60.00
2021,12,21,11,31,60.00
2021,12,21,11,32,60.00
2021,12,21,11,33,61.60
2021,12,21,11,34,62.00
2021,12,21,11,35,62.00
2021,12,21,11,36,62.00
2021,12,21,11,37,62.00
2021,12,21,11,38,62.00
2021,12,21,11,39,62.00
2021,12,21,11,40,62.80
2021,12,21,11,41,63.00
2021,12,21,11,42,63.00
2021,12,21,11,43,63.60
2021,12,21,11,44,65.80
2021,12,21,11,45,68.10
2021,12,21,11,46,69.70
2021,12,21,11,47,71.60
2021,12,21,11,48,72.00
2021,12,21,11,49,74.30
2021,12,21,11,50,76.00
2021,12,21,11,51,76.00
2021,12,21,11,52,76.00
2021,12,21,11,53,76.00
2021,12,21,11,54,76.00
2021,12,21,11,55,76.00
2021,12,21,11,56,76.00
2021,12,21,11,57,76.00
2021,12,21,11,58,75.20
2021,12,21,11,59,74.00
2021,12,21,12,00,72.60
2021,12,21,12,01,72.00
2021,12,21,12,02,72.10
2021,12,21,12,03,73.60
2021,12,21,12,04,71.40
2021,12,21,12,05,70.00
2021,12,21,12,06,70.00
2021,12,21,12,07,72.70
2021,12,21,12,08,75.60
2021,12,21,12,09,77.00
2021,12,21,12,10,79.00
2021,12,21,12,11,79.00
2021,12,21,12,12,79.00
2021,12,21,12,13,77.90
2021,12,21,12,14,76.40
2021,12,21,12,15,74.40
2021,12,21,12,16,72.10
2021,12,21,12,17,69.80
2021,12,21,12,18,68.00
2021,12,21,12,19,63.80
2021,12,21,12,20,59.90
2021,12,21,12,21,56.70
2021,12,21,12,22,54.40
2021,12,21,12,23,54.00
2021,12,21,12,24,54.00
2021,12,21,12,25,54.00
2021,12,21,12,26,54.00
2021,12,21,12,27,53.50
2021,12,21,12,28,53.70
2021,12,21,12,29,54.00
2021,12,21,12,30,55.80
2021,12,21,12,31,56.00
2021,12,21,12,32,55.50
2021,12,21,12,33,54.00
2021,12,21,12,34,54.00
2021,12,21,12,35,55.40
2021,12,21,12,36,57.60
2021,12,21,12,37,58.10
2021,12,21,12,38,60.00
2021,12,21,12,39,60.60
2021,12,21,12,40,62.40
2021,12,21,12,41,64.00
2021,12,21,12,42,66.30
2021,12,21,12,43,67.00
2021,12,21,12,44,66.90
2021,12,21,12,45,64.60
2021,12,21,12,46,62.10
2021,12,21,12,47,59.20
2021,12,21,12,48,56.90
2021,12,21,12,49,56.00
2021,12,21,12,50,54.40
2021,12,21,12,51,53.10
2021,12,21,12,52,53.00
2021,12,21,12,53,53.00
2021,12,21,12,54,52.10
2021,12,21,12,55,50.00
2021,12,21,12,56,49.00
2021,12,21,12,57,47.40
2021,12,21,12,58,46.10
2021,12,21,12,59,45.60
2021,12,21,13,00,44.00
2021,12,21,13,01,43.10
2021,12,21,13,02,42.00
2021,12,21,13,03,42.00
2021,12,21,13,04,43.60
2021,12,21,13,05,44.00
2021,12,21,13,06,44.40
2021,12,21,13,07,46.00
2021,12,21,13,08,46.40
2021,12,21,13,09,48.10
2021,12,21,13,10,50.30
2021,12,21,13,11,52.60
2021,12,21,13,12,53.00
2021,12,21,13,13,52.70
2021,12,21,13,14,49.90
2021,12,21,13,15,46.60
2021,12,21,13,16,46.00
2021,12,21,13,17,44.70
2021,12,21,13,18,44.00
2021,12,21,13,19,42.10
2021,12,21,13,20,42.00
2021,12,21,13,21,41.40
2021,12,21,13,22,40.00
2021,12,21,13,23,40.00
2021,12,21,13,24,40.00
2021,12,21,13,25,40.00
2021,12,21,13,26,41.90
2021,12,21,13,27,44.00
2021,12,21,13,28,44.60
2021,12,21,13,29,46.00
2021,12,21,13,30,46.50
2021,12,21,13,31,47.00
2021,12,21,13,32,48.60
2021,12,21,13,33,49.10
2021,12,21,13,34,53.00
2021,12,21,13,35,53.00
2021,12,21,13,36,52.10
2021,12,21,13,37,49.90
2021,12,21,13,38,47.70
2021,12,21,13,39,46.20
2021,12,21,13,40,45.90
2021,12,21,13,41,44.00
2021,12,21,13,42,44.00
2021,12,21,13,43,44.80
2021,12,21,13,44,46.00
2021,12,21,13,45,46.70
2021,12,21,13,46,47.00
2021,12,21,13,47,47.00
2021,12,21,13,48,49.00
2021,12,21,13,49,49.00
2021,12,21,13,50,49.80
2021,12,21,13,51,51.00
2021,12,21,13,52,51.00
2021,12,21,13,53,51.00
2021,12,21,13,54,51.00
2021,12,21,13,55,51.00
2021,12,21,13,56,51.60
2021,12,21,13,57,53.00
2021,12,21,13,58,50.90
2021,12,21,13,59,47.60
2021,12,21,14,00,46.20
2021,12,21,14,01,44.20
2021,12,21,14,02,43.30
2021,12,21,14,03,40.00
2021,12,21,14,04,39.60
2021,12,21,14,05,37.90
2021,12,21,14,06,37.00
2021,12,21,14,07,37.00
2021,12,21,14,08,35.10
2021,12,21,14,09,35.00
2021,12,21,14,10,34.40
2021,12,21,14,11,32.60
2021,12,21,14,12,32.00
2021,12,21,14,13,30.60
2021,12,21,14,14,30.00
2021,12,21,14,15,30.00
2021,12,21,14,16,30.00
2021,12,21,14,17,30.00
2021,12,21,14,18,30.80
2021,12,21,14,19,32.50
2021,12,21,14,20,33.00
2021,12,21,14,21,33.00
2021,12,21,14,22,33.00
2021,12,21,14,23,33.00
2021,12,21,14,24,32.70
2021,12,21,14,25,32.00
2021,12,21,14,26,32.00
2021,12,21,14,27,30.70
2021,12,21,14,28,30.00
2021,12,21,14,29,30.00
2021,12,21,14,30,30.00
2021,12,21,14,31,30.00
2021,12,21,14,32,30.00
2021,12,21,14,33,31.10
2021,12,21,14,34,32.00
2021,12,21,14,35,32.00
2021,12,21,14,36,32.90
2021,12,21,14,37,33.30
2021,12,21,14,38,35.00
2021,12,21,14,39,35.90
2021,12,21,14,40,36.00
2021,12,21,14,41,35.00
2021,12,21,14,42,33.40
2021,12,21,14,43,30.10
2021,12,21,14,44,27.70
2021,12,21,14,45,25.70
2021,12,21,14,46,25.40
2021,12,21,14,47,26.00
2021,12,21,14,48,27.40
2021,12,21,14,49,29.60
2021,12,21,14,50,30.00
2021,12,21,14,51,29.70
2021,12,21,14,52,27.40
2021,12,21,14,53,26.00
2021,12,21,14,54,25.50
2021,12,21,14,55,25.00
2021,12,21,14,56,23.40
2021,12,21,14,57,22.90
2021,12,21,14,58,21.00
2021,12,21,14,59,20.40
2021,12,21,15,00,19.00
2021,12,21,15,01,19.00
2021,12,21,15,02,18.40
2021,12,21,15,03,18.00
2021,12,21,15,04,16.20
2021,12,21,15,05,15.60
2021,12,21,15,06,14.00
2021,12,21,15,07,14.00
2021,12,21,15,08,14.00
2021,12,21,15,09,14.00
2021,12,21,15,10,14.00
2021,12,21,15,11,14.00
2021,12,21,15,12,14.00
2021,12,21,15,13,13.40
2021,12,21,15,14,12.00
2021,12,21,15,15,11.50
2021,12,21,15,16,11.00
2021,12,21,15,17,11.00
2021,12,21,15,18,11.00
2021,12,21,15,19,11.00
2021,12,21,15,20,11.00
2021,12,21,15,21,11.00
2021,12,21,15,22,11.00
2021,12,21,15,23,9.70
2021,12,21,15,24,9.00
2021,12,21,15,25,7.10
2021,12,21,15,26,7.00
2021,12,21,15,27,7.00
2021,12,21,15,28,7.00
2021,12,21,15,29,7.00
2021,12,21,15,30,7.00
2021,12,21,15,31,7.00
2021,12,21,15,32,7.00
2021,12,21,15,33,7.00
2021,12,21,15,34,7.00
2021,12,21,15,35,7.00
2021,12,21,15,36,7.00
2021,12,21,15,37,7.00
2021,12,21,15,38,7.00
2021,12,21,15,39,7.00
2021,12,21,15,40,6.70
2021,12,21,15,41,5.00
2021,12,21,15,42,5.00
2021,12,21,15,43,5.00
2021,12,21,15,44,5.00
2021,12,21,15,45,5.00
2021,12,21,15,46,5.00
2021,12,21,15,47,5.00
2021,12,21,15,48,3.50
2021,12,21,15,49,0.00
2021,12,21,15,50,0.00
2021,12,21,15,51,0.00
2021,12,21,15,52,0.00
2021,12,21,15,53,0.00
2021,12,21,15,54,0.00
2021,12,21,15,55,0.00
2021,12,21,15,56,0.00
2021,12,21,15,57,0.00
2021,12,21,15,58,0.00
2021,12,21,15,59,0.00
2021,12,21,16,00,0.00
2021,12,21,16,01,0.00
2021,12,21,16,02,0.00
2021,12,21,16,03,0.00
2021,12,21,16,04,0.00
2021,12,21,16,05,0.00
2021,12,21,16,06,0.00
2021,12,21,16,07,0.00
2021,12,21,16,08,0.00
2021,12,21,16,09,0.00
2021,12,21,16,10,0.00
2021,12,21,16,11,0.00
2021,12,21,16,12,0.00
2021,12,21,16,13,0.00
2021,12,21,16,14,0.00
2021,12,21,16,15,0.00
2021,12,21,16,16,0.00
2021,12,21,16,17,0.00
2021,12,21,16,18,0.00
2021,12,21,16,19,0.00
2021,12,21,16,20,0.00
2021,12,21,16,21,0.00
2021,12,21,16,22,0.00
2021,12,21,16,23,0.00
2021,12,21,16,24,0.00
2021,12,21,16,25,0.00
2021,12,21,16,26,0.00
2021,12,21,16,27,0.00
2021,12,21,16,28,0.00
2021,12,21,16,29,0.00
2021,12,21,16,30,0.00
2021,12,21,16,31,0.00
2021,12,21,16,32,0.00
2021,12,21,16,33,0.00
2021,12,21,16,34,0.00
2021,12,21,16,35,0.00
2021,12,21,16,36,0.00
2021,12,21,16,37,0.00
2021,12,21,16,38,0.00
2021,12,21,16,39,0.00
2021,12,21,16,40,0.00
2021,12,21,16,41,0.00
2021,12,21,16,42,0.00
2021,12,21,16,43,0.00
2021,12,21,16,44,0.00
2021,12,21,16,45,0.00
2021,12,21,16,46,0.00
2021,12,21,16,47,0.00
2021,12,21,16,48,0.00
2021,12,21,16,49,0.00
2021,12,21,16,50,0.00
2021,12,21,16,51,0.00
2021,12,21,16,52,0.00
2021,12,21,16,53,0.00
2021,12,21,16,54,0.00
2021,12,21,16,55,0.00
2021,12,21,16,56,0.00
2021,12,21,16,57,0.00
2021,12,21,16,58,0.00
2021,12,21,16,59,0.00
2021,12,21,17,00,0.00
2021,12,21,17,01,0.00
2021,12,21,17,02,0.00
2021,12,21,17,03,0.00
2021,12,21,17,04,0.00
2021,12,21,17,05,0.00
2021,12,21,17,06,0.00
2021,12,21,17,07,0.00
2021,12,21,17,08,0.00
2021,12,21,17,09,0.00
2021,12,21,17,10,0.00
2021,12,21,17,11,0.00
2021,12,21,17,12,0.00
2021,12,21,17,13,0.00
2021,12,21,17,14,0.00
2021,12,21,17,15,0.00
2021,12,21,17,16,0.00
2021,12,21,17,17,0.00
2021,12,21,17,18,0.00
2021,12,21,17,19,0.00
2021,12,21,17,20,0.00
2021,12,21,17,21,0.00
2021,12,21,17,22,0.00
2021,12,21,17,23,0.00
2021,12,21,17,24,0.00
2021,12,21,17,25,0.00
2021,12,21,17,26,0.00
2021,12,21,17,27,0.00
2021,12,21,17,28,0.00
2021,12,21,17,29,0.00
2021,12,21,17,30,0.00
2021,12,21,17,31,0.00
2021,12,21,17,32,0.00
2021,12,21,17,33,0.00
2021,12,21,17,34,0.00
2021,12,21,17,35,0.00
2021,12,21,17,36,0.00
2021,12,21,17,37,0.00
2021,12,21,17,38,0.00
2021,12,21,17,39,0.00
2021,12,21,17,40,0.00
2021,12,21,17,41,0.00
2021,12,21,17,42,0.00
2021,12,21,17,43,0.00
2021,12,21,17,44,0.00
2021,12,21,17,45,0.00
2021,12,21,17,46,0.00
2021,12,21,17,47,0.00
2021,12,21,17,48,0.00